Regional Weather Roundup
Issued by NWS

Home | Current Version | Previous Version | Graphics & Text | Print | Product List | Glossary On
Versions: 1 2 3 4 5 6 7 8 9 10 11 12 13 14 15 16 17 18 19 20 21 22 23 24 25 26 27 28 29 30 31 32 33 34 35 36 37 38 39 40 41 42 43 44 45 46 47 48 49 50
000
ASUS43 KDTX 041901
RWRMI
MICHIGAN HOURLY REGIONAL WEATHER ROUNDUP
NATIONAL WEATHER SERVICE DETROIT/PONTIAC MI
300 PM EDT TUE AUG 04 2015

NOTE: "FAIR" INDICATES FEW OR NO CLOUDS BELOW 12,000 FEET WITH NO
SIGNIFICANT WEATHER AND/OR OBSTRUCTION TO VISIBILITY.

MIZ047>049-052>055-059>063-066>070-074>076-081>083-042000-
SOUTHEAST LOWER MICHIGAN

CITY           SKY/WX    TMP DP  RH WIND       PRES   REMARKS
ADRIAN         MOSUNNY   79  55  43 NW9G17    29.95S
ALMA           PTSUNNY   77  57  50 W13G21    29.92S
ANN ARBOR      MOSUNNY   80  56  43 W10       29.93S
BAD AXE        PTSUNNY   75  56  51 NW16G23   29.90S
CARO           PTSUNNY   77  60  54 W9        29.89F
DETROIT CITY   SUNNY     79  52  38 NW9       29.92R
DETROIT        PTSUNNY   79  53  40 W13       29.92F
FLINT          PTSUNNY   77  58  51 W15       29.92S
GROSSE ILE     PTSUNNY   82  54  36 W12G20    29.91F
HILLSDALE      MOSUNNY   78  55  45 W14G20    29.97S
HOWELL         CLOUDY    76  54  46 W9        29.94S

CITY           SKY/WX    TMP DP  RH WIND       PRES   REMARKS
JACKSON        PTSUNNY   77  55  46 W14G22    29.95S
LAMBERTVILLE   SUNNY     80  55  41 W8        29.95S
LANSING        MOSUNNY   78  55  44 W20G29    29.94S
LAPEER         CLOUDY    74  56  52 W9G17     29.91F
MASON          MOSUNNY   76  54  47 W10G21    29.95R
MONROE         PTSUNNY   78  56  46 W13       29.92F
MT. CLEMENS    PTSUNNY   77  56  46 W12G18    29.89S
PONTIAC        PTSUNNY   75  54  47 W14       29.92F
PORT HURON     CLOUDY    75  57  53 W6        29.90F
TRI CITIES     CLOUDY    75  57  53 W15G22    29.91R
MIDLAND        CLOUDY    74  56  53 W7        29.89S
TROY           CLOUDY    78  51  38 W9G18     29.94S
SAGINAW HB     CLOUDY    73  57  56 W12       29.90R
$$
MIZ043>046-050>051-056>058-064>065-071>073-077>080-042000-
SOUTHWEST LOWER MICHIGAN

CITY           SKY/WX    TMP DP  RH WIND       PRES   REMARKS
BATTLE CREEK     N/A    N/A N/A N/A MISG      29.96F
BENTON HARBOR  MOSUNNY   78  57  48 W13       29.98R
BIG RAPIDS     PTSUNNY   75  53  46 W9G17     29.92S
COLDWATER      PTSUNNY   76  54  44 NW13      29.96F
FREMONT        CLOUDY    74  50  42 W12G20    29.94R
HOLLAND        MOSUNNY   77  58  51 W10G17    29.97R
GRAND RAPIDS   PTSUNNY   78  53  41 SW20G26   29.95R
IONIA          FAIR      78  50  37 W14G21    29.93R
KALAMAZOO      MOSUNNY   80  53  39 W14G22    29.96S
LUDINGTON      SUNNY     73  59  60 W8        29.96R
MARSHALL       MOSUNNY   79  54  41 W8G21     29.95S
MOUNT PLEASANT PTSUNNY   80  56  43 W20G25    29.90F
MUSKEGON       PTSUNNY   75  59  57 W15       29.96R
SOUTH HAVEN    SUNNY     76  54  45 W9        29.97S
$$
MIZ016>042-042000-
NORTHERN LOWER MICHIGAN

CITY           SKY/WX    TMP DP  RH WIND       PRES   REMARKS
ALPENA         PTSUNNY   74  54  49 N15G22    29.88S
BEAVER ISLAND  PTSUNNY   69  54  58 W10       29.93S
BELLAIRE       SUNNY     71  52  51 NW9       29.92S
CADILLAC       PTSUNNY   73  55  53 W14G21    29.93R
CHARLEVOIX     SUNNY     67  53  61 NW7       29.96R
FRANKFORT      MOSUNNY   71  60  67 W9        29.94R
GAYLORD        PTSUNNY   69  52  54 VRB6      29.92R
GRAYLING       CLOUDY    72  55  54 W10G20    29.93R
HARBOR SPRINGS PTSUNNY   69  52  54 W8        29.92S
HOUGHTON LAKE  PTSUNNY   71  55  56 NW13      29.92R
MANISTEE       MOSUNNY   68  55  64 W10G18    29.96R
OSCODA         CLOUDY    70  59  68 NW6       29.88F
PELLSTON       LGT RAIN  68  51  54 NW17      29.92R
ROGERS CITY    PTSUNNY   66  55  67 N10G21    29.90S
TRAVERSE CITY  PTSUNNY   71  56  58 NE10      29.90S
$$
MIZ007>008-015-042000-
EASTERN UPPER MICHIGAN

CITY           SKY/WX    TMP DP  RH WIND       PRES   REMARKS
KINROSS        CLOUDY    66  52  59 NW16G22   29.90R
MACKINAC ISLAN PTSUNNY   67  51  56 W12G20    29.90S
NEWBERRY       CLOUDY    66  49  54 NW10G20   29.92S
S. S. MARIE    PTSUNNY   65  50  58 NW12      29.90R
MUNISING         N/A     66  52  60 N13       29.94S
$$
MIZ004>006-011>014-085-042000-
CENTRAL UPPER MICHIGAN

CITY           SKY/WX    TMP DP  RH WIND       PRES   REMARKS
MANISTIQUE     CLOUDY    68  52  56 NW7       29.93S
ESCANABA       PTSUNNY   61  57  88 NE7       29.94R
MENOMINEE      MOSUNNY   70  55  60 E10       29.92R
SAWYER-GWINN   PTSUNNY   64  52  63 NE9       29.94S
$$
MIZ001>003-009>011-084-042000-
WESTERN UPPER MICHIGAN

CITY           SKY/WX    TMP DP  RH WIND       PRES   REMARKS
IRON MOUNTAIN  MOSUNNY   72  52  49 NW16      29.92F
HOUGHTON       PTSUNNY   62  48  60 NW17G23   29.97R
COPPER HARBOR    N/A     61  52  72 N9        29.96R
IRONWOOD       PTSUNNY   66  54  63 NW8       29.96S
$$

ABBREVIATIONS USED IN REMARKS
   TC - TEMPERATURE IN CELSIUS
  WCI - WIND CHILL INDEX
   HX - HEAT INDEX
  VSB - VISIBILITY



USA.gov is the U.S. government's official web portal to all federal, state and local government web resources and services.